FLOCK 4BE-10 (60503 NORAD) Tracking and Keplerian Element Data

This shows tracking and keplerian element data for the satellite.

Feedback or suggestion? Click here.




ElementValue
Catalog60503
NameFLOCK 4BE-10
Epoch Orbit865
Epoch Day286.82295043
Epoch Year2024
RAAN1.535
Inclination97.4399
Eccentricity0.000316
Argument of Perigee290.1519
Mean Anonmoly69.9375
Mean Motion15.19813754
Decay Rate0.00019741
L11 60503U 24149AM 24286.82295043 .00019741 00000+0 92284-3 0 9998
L22 60503 97.4399 1.5350 0003160 290.1519 69.9375 15.19813754 8650



Live tracking and technical data element details for FLOCK 4BE-10 (NORAD 60503). FLOCK 4BE-10 can be tracked NOW for your location showing map with azimuth and elevation plus other details from your city location.







IsCatalogInMostPopularTable: catalog: 60503, numindb: 7
Update: records affected: 1



GetName: 60503 FLOCK 4BE-10

Hit Count: updated at: Fri, 06 Dec 2024 10:50:16 GMT